| Position | Nick | Country | Points | Time | Created |
| 11129 | lolochan | ![]() | 300 | 3:07.80 | 25.06.2012 15:31:19 UTC |
| 11130 | patch08pl | ![]() | 300 | 3:07.91 | 30.11.2015 22:46:11 UTC |
| 11131 | BeFs | ![]() | 300 | 3:07.92 | 04.01.2015 14:06:50 UTC |
| 11132 | _DalnoboiScanii_ | ![]() | 300 | 3:07.93 | 19.09.2021 20:24:09 UTC |
| 11133 | Leten | ![]() | 300 | 3:07.96 | 16.06.2020 11:33:38 UTC |
| 11134 | Baracus90 | ![]() | 300 | 3:07.97 | 11.08.2019 14:25:48 UTC |
| 11135 | Dogusto | ![]() | 300 | 3:08.04 | 26.11.2018 22:32:23 UTC |
| 11136 | White | ![]() | 300 | 3:08.05 | 06.09.2020 21:27:15 UTC |
| 11137 | pixiehouse | ![]() | 300 | 3:08.07 | 19.02.2018 15:46:41 UTC |
| 11138 | HORALA | ![]() | 300 | 3:08.10 | 19.09.2022 13:00:47 UTC |
| 11139 | Extazzy055 | ![]() | 300 | 3:08.11 | 16.01.2026 11:21:48 UTC |
| 11140 | Temperax | ![]() | 300 | 3:08.14 | 24.01.2020 21:19:48 UTC |
| 11141 | macchietta63 | ![]() | 300 | 3:08.28 | 05.04.2014 21:34:36 UTC |
| 11142 | strv | ![]() | 300 | 3:08.34 | 06.09.2015 16:17:57 UTC |
| 11143 | DominikKanta | ![]() | 300 | 3:08.37 | 30.12.2014 14:47:49 UTC |
| 11144 | WREX01 | ![]() | 300 | 3:08.41 | 14.01.2018 21:15:35 UTC |
| 11145 | wacocox | ![]() | 300 | 3:08.54 | 22.02.2023 20:49:42 UTC |
| 11146 | BLACK_ELK_60 | ![]() | 300 | 3:08.67 | 10.02.2023 20:11:57 UTC |
| 11147 | ToroaSTDS | ![]() | 300 | 3:08.68 | 19.04.2026 10:49:08 UTC |
| 11148 | mjab | ![]() | 300 | 3:08.69 | 28.06.2014 10:16:48 UTC |
| 11149 | lcgame10 | ![]() | 300 | 3:08.71 | 05.07.2019 20:38:33 UTC |
| 11150 | juissi | ![]() | 300 | 3:08.81 | 08.09.2018 17:15:57 UTC |
| 11151 | justvig | ![]() | 300 | 3:08.82 | 10.03.2018 22:41:42 UTC |
| 11152 | iTzRdF | ![]() | 300 | 3:08.83 | 02.08.2020 00:27:17 UTC |
| 11153 | JONESUK | ![]() | 300 | 3:08.88 | 09.03.2014 20:01:57 UTC |
| 11154 | richardstraver1 | ![]() | 300 | 3:08.92 | 04.04.2020 08:21:59 UTC |
| 11155 | kubafiedorek11 | ![]() | 300 | 3:08.93 | 19.05.2018 12:53:47 UTC |
| 11156 | blmenau | ![]() | 300 | 3:08.99 | 05.10.2014 03:06:58 UTC |
| 11157 | Mattstorm21 | ![]() | 300 | 3:09.08 | 05.11.2014 07:21:22 UTC |
| 11158 | stefanmilescu | ![]() | 300 | 3:09.22 | 22.07.2017 10:43:19 UTC |
| 11159 | Maibe | ![]() | 300 | 3:09.25 | 08.03.2015 22:33:19 UTC |
| 11160 | ManuelRx | ![]() | 300 | 3:09.30 | 01.11.2017 20:31:34 UTC |
| 11161 | George6 | ![]() | 300 | 3:09.42 | 15.01.2022 08:51:56 UTC |
| 11162 | bossyara | ![]() | 300 | 3:09.45 | 30.03.2017 19:21:17 UTC |
| 11163 | Bigmatt125 | ![]() | 300 | 3:09.57 | 18.03.2020 17:19:23 UTC |
| 11164 | sethainsley | ![]() | 300 | 3:09.65 | 06.02.2016 04:50:05 UTC |
| 11165 | zufgrdewg | ![]() | 300 | 3:09.67 | 25.06.2018 13:31:21 UTC |
| 11166 | CaptainCrow | ![]() | 300 | 3:09.78 | 15.07.2017 21:37:43 UTC |
| 11167 | Buzze | ![]() | 300 | 3:09.81 | 23.11.2019 11:34:06 UTC |
| 11168 | ilmir_23 | ![]() | 300 | 3:09.82 | 02.01.2017 18:35:59 UTC |
| 11169 | Teslavision | ![]() | 300 | 3:09.84 | 13.06.2015 23:03:31 UTC |
| 11170 | 1337acab | ![]() | 300 | 3:09.88 | 19.08.2015 16:32:32 UTC |
| 11171 | Marijn04 | ![]() | 300 | 3:09.96 | 24.03.2023 10:46:39 UTC |
| 11172 | SDMNGaming | ![]() | 300 | 3:10.19 | 24.06.2017 12:31:19 UTC |
| 11173 | Filo | ![]() | 300 | 3:10.48 | 11.07.2017 18:43:44 UTC |
| 11174 | ozguroga24 | ![]() | 300 | 3:10.50 | 09.04.2021 12:07:47 UTC |
| 11175 | tohaprog | ![]() | 300 | 3:10.56 | 04.01.2016 21:41:23 UTC |
| 11176 | AJIEKC | ![]() | 300 | 3:10.57 | 30.12.2015 12:06:16 UTC |
| 11177 | claudiofilho12 | ![]() | 300 | 3:10.81 | 16.02.2018 21:05:28 UTC |
| 11178 | BeiMax4545 | ![]() | 300 | 3:10.96 | 02.12.2015 16:25:05 UTC |


































